Find Starlink 1191

NORAD ID: 45222 Int'l Des: 2020-012 Owner: SPXS Country: US Constellation: starlink operational
LEOCIRCULAR

現在のビュー

3D地球を読み込み中...

About Starlink 1191

Starlink 1191 (NORAD 45222) is a starlink constellation satellite (v1.0) launched Feb 17, 2020 by SPXS of US. It operates in LEO, CIRCULAR orbit with a mass of 260.00 kg.

Starlink 1191について

説明を読み込み中...

次回通過

Passes for default location (London). Set your location on the main map for personalized predictions.

高度履歴

Loading altitude history...

軌道要素

1 45222U 20012AW 26170.48788455 .00047972 00000-0 11754-2 0 9994
2 45222 53.1521 242.3312 0002883 301.2164 58.8558 15.40291933351150
Epoch: Jun 19, 2026 • Age: 22 hours

現在のステータス

高度 448.4 km
速度 7.65 km/s
衛星直下点 36.99°N, 142.27°W
打ち上げ日 Feb 17, 2020
運用期間 6.3 years
タイプ internet

技術仕様

分類 Payload
質量 260.00 kg
乾燥質量 248.00 kg
総質量 260.00 kg
長さ 0.20 m
直径 2.80 m
スパン 9.00 m
形状 Box + pan
製造者 SPXS
バスタイプ Starlink
フェーズステータス In Orbit
所有者/国 SPXS/US

Most Searched